Location: STAR School
(35.3054°N, 111.2976°W)
Time: 08:04:08
(UTC-07:00)

Transit 2A Rocket - Pass Details

Date: 03 June 2019
Orbit: 586 x 917 km, 66.7° (Epoch: 16 June)

Event Time Altitude Azimuth Distance (km) Brightness Sun altitude
Rises 23:46:01 0° 337° (NNW) 3,329 9.4 -31.6°
Reaches altitude 10° 23:48:37 10° 343° (NNW) 2,341 8.4 -31.7°
Enters shadow 23:52:39 42° 17° (NNE) 1,044 6.0 -31.8°
